Regional Weather Roundup
Issued by NWS

Home | Current Version | Previous Version | Text Only | Print | Product List | Glossary Off
Versions: 1 2 3 4 5 6 7 8 9 10 11 12 13 14 15 16 17 18 19 20 21 22 23 24 25 26 27 28 29 30 31 32 33 34 35 36 37 38 39 40 41 42 43 44 45 46 47 48 49 50

000
ASUS44 KMEG 302200
RWRTN
TENNESSEE HOURLY STATE WEATHER ROUNDUP
NATIONAL WEATHER SERVICE MEMPHIS TN
500 PM CDT SAT AUG 30 2014

TNZ002-004-019-021-049-052-054-088>092-302300-
WEST TENNESSEE

CITY           SKY/WX    TMP DP  RH WIND       PRES   REMARKS
MEMPHIS INTL   LGT RAIN  78  74  87 S5        30.00S
NWS MEMPHIS      N/A     78 N/A N/A MISG        N/A
JACKSON        LGT RAIN  79  75  87 S5        30.01F
DYERSBURG      CLOUDY    75  64  69 CALM      30.01F
UNION CITY     CLOUDY    73  72  94 S7        30.00S
PARIS          MOSUNNY   73  72  94 CALM      30.02F
LEXINGTON      MOSUNNY   81  73  78 SW3       30.01S
SAVANNAH       SUNNY     81  75  83 SW3       30.03R
$$

TNZ008-025-027-028-033-062-065-066-302300-
NORTH MIDDLE TENNESSEE

CITY           SKY/WX    TMP DP  RH WIND       PRES   REMARKS
NASHVILLE      CLOUDY    80  72  76 N5        30.03F
CLARKSVILLE    LGT RAIN  77  72  84 CALM      30.03F
COOKEVILLE     PTSUNNY   81  77  89 NW5       30.04S
CROSSVILLE     MOSUNNY   81  67  62 S6        30.10F
$$

TNZ061-075-076-078-094-096-097-302300-
SOUTH MIDDLE TENNESSEE

CITY           SKY/WX    TMP DP  RH WIND       PRES   REMARKS
FAYETTEVILLE   SUNNY     75  72  88 SE8       30.05R
TULLAHOMA      MOSUNNY   77  72  83 W3        30.07S
WINCHESTER     SUNNY     81  73  78 SE6       30.05F
SHELBYVILLE    PTSUNNY   73  73 100 CALM      30.05F
$$

TNZ017-018-042-046-047-302300-
NORTHEAST TENNESSEE

CITY           SKY/WX    TMP DP  RH WIND       PRES   REMARKS
TRI CITIES     PTSUNNY   85  65  51 VRB3      30.11S
ELIZABETHTON   PTCLDY    84  64  51 CALM      30.12S
$$

TNZ012-013-036-069-073-074-302300-
CENTRAL EAST TENNESSEE

CITY           SKY/WX    TMP DP  RH WIND       PRES   REMARKS
KNOXVILLE      PTSUNNY   79  71  76 CALM      30.07S
OAK RIDGE      MOSUNNY   81  73  76 CALM      30.08F
GATLINBURG     MOCLDY    79  72  78 N3        30.08S
$$

TNZ083-085-099-302300-
SOUTHEAST TENNESSEE

CITY           SKY/WX    TMP DP  RH WIND       PRES   REMARKS
CHATTANOOGA    CLOUDY    85  69  58 SW7       30.03F
$$

SKY/WX REPORTED AS FAIR MEANS FEW OR NO CLOUDS BELOW
12 THOUSAND FEET.




USA.gov is the U.S. government's official web portal to all federal, state and local government web resources and services.